User: anonymous   Login
Location: Bojarzin Observatory
(39.7980°N, 89.7627°W)
Time: 17:32:19
(UTC-05:00)
Language:

ISS - Orbit

View from above orbital plane
View from above orbital plane
View from above satellite
View from above satellite

Ground track
Ground track

The orbit data is extracted from the following two-line orbital elements,

1 25544U 98067A   18111.67900196  .00016717  00000-0  10270-3 0  9030
2 25544  51.6390 300.4147 0002347    .1457 359.9696 15.54142372 29729
Epoch (UTC): 21 April 2018 16:17:45
Eccentricity: 0.0002347
inclination: 51.6390°
perigee height: 403 km
apogee height: 406 km
right ascension of ascending node: 300.4147°
argument of perigee: 0.1457°
revolutions per day: 15.54142372
mean anomaly at epoch: 359.9696°
orbit number at epoch: 2972

The dashed part of the orbit path shows where the satellite is in the earth's shadow,  

DLR